TimeCST,TemperatureF,Dew PointF,Humidity,Sea Level PressureIn,VisibilityMPH,Wind Direction,Wind SpeedMPH,Gust SpeedMPH,PrecipitationIn,Events,Conditions,WindDirDegrees,DateUTC
12:15 AM,32.5,31.8,97,29.64,2.5,NW,4.6,-,N/A,Rain,Rain,320,2013-12-22 06:15:00
12:35 AM,32.5,31.8,97,29.65,2.5,WNW,4.6,-,N/A,Rain,Light Rain,290,2013-12-22 06:35:00
12:55 AM,32.7,32.0,97,29.66,3.0,West,4.6,-,N/A,Rain,Heavy Rain,280,2013-12-22 06:55:00
1:15 AM,32.9,32.0,96,29.66,3.0,WNW,4.6,-,0.01,,Heavy Drizzle,290,2013-12-22 07:15:00
1:35 AM,32.9,32.0,96,29.66,3.0,WNW,3.5,-,0.02,Rain,Rain,290,2013-12-22 07:35:00
1:55 AM,32.9,32.0,96,29.66,3.0,West,3.5,-,0.04,Rain,Heavy Rain,260,2013-12-22 07:55:00
2:15 AM,32.9,32.0,96,29.66,3.0,Calm,Calm,-,N/A,,Drizzle,0,2013-12-22 08:15:00
2:35 AM,32.9,32.0,96,29.66,3.0,Calm,Calm,-,N/A,,Drizzle,0,2013-12-22 08:35:00
2:55 AM,32.9,32.0,96,29.66,3.0,Calm,Calm,-,N/A,,Drizzle,0,2013-12-22 08:55:00
3:15 AM,32.9,32.0,96,29.67,3.0,Calm,Calm,-,N/A,,Drizzle,0,2013-12-22 09:15:00
3:35 AM,32.9,32.0,96,29.68,3.0,Calm,Calm,-,N/A,,Light Drizzle,0,2013-12-22 09:35:00
3:55 AM,32.9,32.0,96,29.70,2.5,SW,4.6,-,N/A,Rain,Rain,230,2013-12-22 09:55:00
4:15 AM,32.9,32.0,96,29.71,2.0,WSW,4.6,-,N/A,,Light Drizzle,250,2013-12-22 10:15:00
4:35 AM,32.9,32.0,96,29.71,2.5,West,4.6,-,N/A,,Overcast,260,2013-12-22 10:35:00
4:55 AM,32.5,31.8,97,29.70,5.0,West,5.8,-,N/A,,Overcast,260,2013-12-22 10:55:00
5:15 AM,32.5,31.8,97,29.71,4.0,West,4.6,-,N/A,,Overcast,260,2013-12-22 11:15:00
5:35 AM,32.5,31.8,97,29.73,4.0,WSW,4.6,-,N/A,,Overcast,250,2013-12-22 11:35:00
5:55 AM,32.5,31.6,96,29.75,5.0,WSW,4.6,-,N/A,,Overcast,240,2013-12-22 11:55:00
6:15 AM,32.7,31.6,96,29.75,5.0,West,4.6,-,N/A,,Overcast,270,2013-12-22 12:15:00
6:35 AM,32.5,31.5,96,29.77,7.0,West,4.6,-,N/A,,Overcast,270,2013-12-22 12:35:00
6:55 AM,32.5,31.1,94,29.78,7.0,West,4.6,-,N/A,,Overcast,260,2013-12-22 12:55:00
7:15 AM,32.4,31.1,95,29.79,7.0,West,5.8,-,N/A,,Overcast,270,2013-12-22 13:15:00
7:35 AM,32.4,30.9,94,29.80,5.0,West,4.6,-,N/A,,Overcast,270,2013-12-22 13:35:00
7:55 AM,32.0,30.6,94,29.82,3.0,West,3.5,-,N/A,,Overcast,270,2013-12-22 13:55:00
8:15 AM,32.0,30.2,93,29.82,4.0,West,5.8,-,N/A,,Overcast,280,2013-12-22 14:15:00
8:35 AM,32.0,29.8,92,29.84,5.0,West,5.8,-,N/A,,Overcast,270,2013-12-22 14:35:00
8:55 AM,32.0,29.8,92,29.86,5.0,West,5.8,-,N/A,,Overcast,270,2013-12-22 14:55:00
9:15 AM,31.8,29.5,91,29.87,5.0,West,8.1,-,N/A,,Overcast,280,2013-12-22 15:15:00
9:35 AM,31.8,29.3,90,29.88,5.0,West,8.1,-,N/A,,Overcast,280,2013-12-22 15:35:00
9:55 AM,31.8,29.3,90,-9999,-9999.0,WNW,6.9,-,N/A,,Overcast,290,2013-12-22 15:55:00
10:15 AM,31.8,29.3,90,29.90,5.0,WNW,4.6,-,N/A,,Mist,290,2013-12-22 16:15:00
10:35 AM,31.8,29.3,90,29.91,5.0,WNW,6.9,-,N/A,,Overcast,300,2013-12-22 16:35:00
10:55 AM,31.8,29.8,92,29.90,4.0,WNW,6.9,-,N/A,,Overcast,300,2013-12-22 16:55:00
11:15 AM,31.6,29.3,91,29.90,5.0,WNW,6.9,-,N/A,,Overcast,300,2013-12-22 17:15:00
11:35 AM,31.6,29.3,91,29.91,5.0,WNW,8.1,-,N/A,,Overcast,290,2013-12-22 17:35:00
11:55 AM,31.5,29.1,91,29.93,5.0,West,8.1,-,N/A,,Overcast,280,2013-12-22 17:55:00
12:15 PM,31.5,28.9,90,29.93,5.0,WNW,6.9,-,N/A,,Overcast,300,2013-12-22 18:15:00
12:35 PM,31.1,28.9,92,29.95,5.0,WNW,6.9,-,N/A,,Overcast,290,2013-12-22 18:35:00
12:55 PM,30.9,28.4,90,29.96,7.0,WNW,5.8,-,N/A,,Overcast,300,2013-12-22 18:55:00
1:15 PM,30.9,28.4,90,29.97,7.0,WNW,6.9,-,N/A,,Overcast,290,2013-12-22 19:15:00
1:35 PM,30.4,27.5,89,29.98,7.0,West,8.1,-,N/A,,Overcast,280,2013-12-22 19:35:00
1:55 PM,30.4,27.7,90,29.99,7.0,WNW,5.8,-,N/A,,Overcast,290,2013-12-22 19:55:00
2:15 PM,30.0,27.1,89,29.99,7.0,NW,9.2,-,N/A,,Overcast,310,2013-12-22 20:15:00
2:35 PM,30.0,27.1,89,30.00,7.0,WNW,8.1,-,N/A,,Overcast,290,2013-12-22 20:35:00
2:55 PM,29.8,27.0,89,30.02,7.0,West,8.1,-,N/A,,Overcast,280,2013-12-22 20:55:00
3:15 PM,29.8,27.0,89,30.03,10.0,WNW,5.8,-,N/A,,Overcast,300,2013-12-22 21:15:00
3:35 PM,29.8,27.1,90,30.05,10.0,West,9.2,-,N/A,,Overcast,280,2013-12-22 21:35:00
3:55 PM,29.5,26.4,88,30.05,10.0,WNW,6.9,-,N/A,,Overcast,290,2013-12-22 21:55:00
4:15 PM,29.3,25.9,87,30.06,10.0,WNW,8.1,-,N/A,,Overcast,290,2013-12-22 22:15:00
4:35 PM,29.1,25.9,88,30.07,10.0,WNW,6.9,-,N/A,,Overcast,300,2013-12-22 22:35:00
4:55 PM,28.9,25.5,87,30.08,10.0,WNW,8.1,-,N/A,,Overcast,300,2013-12-22 22:55:00
5:15 PM,28.9,25.9,88,30.10,10.0,WNW,5.8,-,N/A,,Overcast,300,2013-12-22 23:15:00
5:35 PM,28.4,24.6,86,30.11,10.0,NW,9.2,-,N/A,,Overcast,310,2013-12-22 23:35:00
5:55 PM,28.4,24.8,86,30.11,10.0,WNW,9.2,-,N/A,,Overcast,290,2013-12-22 23:55:00
6:15 PM,28.0,24.4,86,30.13,10.0,WNW,5.8,-,N/A,,Overcast,290,2013-12-23 00:15:00
6:35 PM,27.5,23.9,86,30.14,10.0,WNW,8.1,-,N/A,,Overcast,300,2013-12-23 00:35:00
6:55 PM,27.5,23.7,86,30.16,10.0,WNW,6.9,-,N/A,,Overcast,290,2013-12-23 00:55:00
7:15 PM,27.5,23.7,86,30.16,10.0,WNW,6.9,-,N/A,,Overcast,290,2013-12-23 01:15:00
7:35 PM,27.0,23.0,85,30.17,10.0,WNW,8.1,-,N/A,,Overcast,290,2013-12-23 01:35:00
7:55 PM,26.6,22.6,85,30.18,10.0,WNW,8.1,-,N/A,,Overcast,290,2013-12-23 01:55:00
8:15 PM,26.4,21.6,82,30.19,10.0,WNW,9.2,-,N/A,,Overcast,300,2013-12-23 02:15:00
8:35 PM,26.2,21.9,84,30.20,10.0,WNW,5.8,-,N/A,,Overcast,300,2013-12-23 02:35:00
8:55 PM,26.4,22.5,85,30.20,10.0,WNW,6.9,-,N/A,,Overcast,290,2013-12-23 02:55:00
9:15 PM,25.5,21.4,84,30.21,10.0,WNW,8.1,-,N/A,,Overcast,290,2013-12-23 03:15:00
9:35 PM,24.8,20.1,82,30.23,10.0,WNW,11.5,17.3,N/A,,Overcast,290,2013-12-23 03:35:00
9:55 PM,24.4,19.8,82,30.23,10.0,WNW,10.4,-,N/A,,Overcast,290,2013-12-23 03:55:00
10:15 PM,22.8,17.2,79,30.25,10.0,WNW,10.4,16.1,N/A,,Overcast,290,2013-12-23 04:15:00
10:35 PM,21.2,15.3,78,30.26,10.0,WNW,13.8,18.4,N/A,,Mostly Cloudy,290,2013-12-23 04:35:00
10:55 PM,-9999,-9999,N/A,30.27,10.0,West,5.8,-,N/A,,Overcast,280,2013-12-23 04:55:00
11:15 PM,20.5,16.2,83,30.28,10.0,West,5.8,-,N/A,,Overcast,270,2013-12-23 05:15:00
11:35 PM,21.0,16.7,83,30.29,10.0,West,6.9,-,N/A,,Overcast,280,2013-12-23 05:35:00
11:55 PM,20.8,16.5,83,30.29,10.0,WNW,8.1,-,N/A,,Overcast,290,2013-12-23 05:55:00